Regional Weather Roundup
Issued by NWS Midland/Odessa, TX

Skip options and go directly to product.
Home | Oldest Version | Previous Version | Current Version | All | Text Only | Save Text | Print | Product List | Glossary On

Skip product version selection by date and time.   
242
ASUS44 KMAF 060510
RWRMAF
MIDLAND AREA WEATHER ROUNDUP
NATIONAL WEATHER SERVICE MIDLAND TX
1200 AM CDT FRI MAY 06 2016

...IN SOUTHWEST TEXAS AND SOUTHEAST NEW MEXICO...

CITY           SKY/WX    TMP DP  RH WIND       PRES   REMARKS
ALPINE         CLEAR     68  29  23 S8        30.17R
ANDREWS        FAIR      64  33  31 SE8       30.08S
ARTESIA        CLEAR     63  25  23 S9        30.04R
BIG SPRING     CLEAR     67  42  38 E12       30.09S
CARLSBAD       CLEAR     66  24  20 S9        30.02R
DRYDEN           N/A     70  33  25 E7        30.04S
FORT STOCKTON  CLEAR     70  29  21 SE15G23   30.05S
GUAD PASS      CLEAR     64  21  19 NE30      30.12S
HOBBS          CLEAR     64  28  25 SE10      30.08F
MARFA          CLEAR     63  26  24 E9        30.13F
MIDLAND AIRPK  CLEAR     71  36  26 SE9       30.08R
MIDLAND INTL   CLEAR     66  36  32 SE9       30.08R
ODESSA         CLEAR     71  36  27 SE14      30.08R
PECOS          CLEAR     71  26  18 SE10      30.02S
PRESIDIO       FAIR      79  30  17 NE14      29.98R
SEMINOLE       CLEAR     61  32  34 CALM      30.09F
SNYDER           N/A     67  47  48 SE12      30.07F
WINK           CLEAR     69  30  23 SE12      30.02S
$$
...OTHER STATIONS IN TEXAS...

CITY           SKY/WX    TMP DP  RH WIND       PRES   REMARKS
ABILENE        CLEAR     63  55  75 SE7       30.07F
AMARILLO       CLEAR     61  47  59 SE15      30.09R
AUSTIN         PTCLDY    61  58  90 CALM      30.04S
BROWNSVILLE    CLEAR     68  64  87 SW5       30.03R
CORPUS CHRISTI PTCLDY    68  58  70 SW3       30.01S
DALLAS FTW     PTCLDY    69  47  45 CALM      30.04F
DEL RIO        MOCLDY    75  45  34 E9        30.01R
EL PASO        PTCLDY    79  29  16 SE15      29.93S
HOUSTON INT    MOCLDY    66  51  58 N6        30.03R
LUBBOCK        PTCLDY    70  38  31 S15       30.07S
SAN ANGELO     CLOUDY    63  49  60 SE6       30.06S
SAN ANTONIO    PTCLDY    70  56  61 CALM      30.05S
WACO           CLEAR     58  53  84 CALM      30.06R
WICHITA FALLS  NOT AVBL
$$
...OTHER LOCATIONS IN NEW MEXICO...

CITY           SKY/WX    TMP DP  RH WIND       PRES   REMARKS
ALAMAGORDO     CLEAR     81  23  12 SE24G30   29.96S
ALBUQUERQUE    PTCLDY    67  25  20 SE10      30.02S
CANNON AFB     NOT AVBL
CLOVIS         CLEAR     57  28  33 S9        30.10F
HOLLOMAN AFB   CLEAR     77  19  11 SE22      29.94S
ROSWELL        CLEAR     63  25  23 S8        30.03R
RUIDOSO          N/A     57  19  23 SE12      30.22R
SANTA FE       CLEAR     60  22  23 SE12      30.12R
TRUTH OR CONSE LGT RAIN  72  42  34 S26G38    30.02R
TUCUMCARI      CLEAR     60  29  30 SW8       30.04S
$$

USA.gov is the U.S. government's official web portal to all federal, state and local government web resources and services.